This demonstration page uses our WeatherBlox Daily Observations layout. Learn more.

Left ArrowRight Arrow

47.50024, -111.30081

Hourly Observations for January 15, 2020

Temp ( °F °C ) Dew Point ( °F °C ) Humidity (%) Winds ( mph kmh ) Pressure ( in mb ) Visibility ( mi km ) Precip ( " mm )
12:53 am 00:53 Clear -13 -25 -19 -28.3 74 74 E 5 7 30.31 1026 10 16 0.00 0.00
1:14 am 01:14 Hazy -13 -25 -19 -28.3 74 74 E 3 6 30.52 1033 6 10 0.00 0.00
1:23 am 01:23 Mostly Cloudy with Haze -13 -25 -19 -28.3 74 74 E 3 6 30.52 1033 5 8 0.00 0.00
1:30 am 01:30 Mostly Clear -13 -25 -19 -28.3 74 74 ESE 3 6 30.52 1033 10 16 0.00 0.00
1:42 am 01:42 Hazy -12 -24.4 -18 -27.8 73 73 ESE 5 7 30.51 1033 3 4 0.00 0.00
1:49 am 01:49 Mostly Clear -13 -25 -18 -28 76 76 ESE 5 7 30.52 1033 10 16 0.00 0.00
1:53 am 01:53 Mostly Clear -13 -25 -18 -27.8 78 78 E 5 7 30.32 1027 10 16 0.00 0.00
2:05 am 02:05 Mostly Cloudy with Haze -14 -25.6 -19 -28.3 78 78 Calm 30.55 1034 3 4 0.00 0.00
2:13 am 02:13 Hazy -14 -25.6 -21 -29.4 71 71 Calm 30.55 1034 3 5 0.00 0.00
2:53 am 02:53 Mostly Clear -15 -26.1 -21 -29.4 74 74 Calm 30.35 1028 10 16 0.00 0.00
3:53 am 03:53 Clear -17 -27.2 -23 -30.6 73 73 Calm 30.38 1029 10 16 0.00 0.00
4:53 am 04:53 Clear -15 -26.1 -20 -28.9 77 77 SE 5 7 30.40 1030 10 16 0.00 0.00
5:53 am 05:53 Clear -16 -26.7 -21 -29.4 78 78 Calm 30.42 1030 10 16 0.00 0.00
6:53 am 06:53 Clear -15 -26.1 -22 -30 70 70 Calm 30.43 1031 10 16 0.00 0.00
7:53 am 07:53 Clear -14 -25.6 -20 -28.9 74 74 Calm 30.43 1031 9 14 0.00 0.00
8:12 am 08:12 Hazy -14 -25.6 -20 -28.9 74 74 E 3 6 30.64 1038 4 6 0.00 0.00
8:16 am 08:16 Sunny -14 -25.6 -20 -28.9 74 74 ESE 3 6 30.64 1038 8 13 0.00 0.00
8:53 am 08:53 Sunny -12 -24.4 -16 -26.7 81 81 Calm 30.43 1031 10 16 0.00 0.00
9:53 am 09:53 Sunny -8 -22.2 -14 -25.6 74 74 SSE 6 9 30.43 1030 10 16 0.00 0.00
10:53 am 10:53 Sunny -3 -19.4 -7 -21.7 82 82 Calm 30.41 1030 10 16 0.00 0.00
11:53 am 11:53 Sunny 7 -13.9 1 -17.2 76 76 SW 3 6 30.37 1028 10 16 0.00 0.00
12:53 pm 12:53 Sunny 15 -9.4 2 -16.7 56 56 NE 10 17 30.32 1027 10 16 0.00 0.00
1:53 pm 13:53 Sunny 13 -10.6 2 -16.7 61 61 E 7 11 30.31 1026 10 16 0.00 0.00
2:53 pm 14:53 Sunny 10 -12.2 -1 -18.3 61 61 E 9 15 30.31 1026 10 16 0.00 0.00
3:53 pm 15:53 Sunny 5 -15 -3 -19.4 69 69 E 15 24 30.33 1027 10 16 0.00 0.00
4:53 pm 16:53 Sunny 2 -16.7 -5 -20.6 72 72 E 12 19 30.33 1027 10 16 0.00 0.00
5:53 pm 17:53 Clear -2 -18.9 -8 -22.2 75 75 ENE 10 17 30.37 1028 10 16 0.00 0.00
6:53 pm 18:53 Clear -5 -20.6 -11 -23.9 75 75 NE 13 20 30.37 1029 10 16 0.00 0.00
7:40 pm 19:40 Mostly Clear -8 -22.2 -14 -25.6 74 74 NNE 12 19 30.54 1034 10 16 0.00 0.00
7:53 pm 19:53 Mostly Clear -9 -22.8 -15 -26.1 75 75 NE 13 20 30.39 1029 10 16 0.00 0.00
8:53 pm 20:53 Clear -9 -22.8 -14 -25.6 78 78 NNE 9 15 30.40 1030 10 16 0.00 0.00
9:13 pm 21:13 Mostly Clear -9 -22.8 -14 -25.6 78 78 NNE 8 13 30.56 1035 7 11 0.00 0.00
9:53 pm 21:53 Hazy -10 -23.3 -15 -26.1 78 78 N 6 9 30.40 1029 5 8 0.00 0.00
10:01 pm 22:01 Mostly Cloudy with Haze -10 -23.3 -16 -26.7 74 74 NNW 5 7 30.58 1035 3 4 0.00 0.00
10:10 pm 22:10 Mostly Clear -10 -23.3 -16 -26.7 74 74 NNE 3 6 30.57 1035 10 16 0.00 0.00
10:53 pm 22:53 Cloudy -9 -22.8 -14 -25.6 78 78 NNE 5 7 30.37 1029 10 16 0.00 0.00
11:53 pm 23:53 Cloudy -10 -23.3 -16 -26.7 74 74 NE 6 9 30.36 1028 10 16 0.00 0.00

Powered by AerisWeather